Location: State Line Observation Field
(36.5320°N, 77.5360°W)
Time: 02:22:13
(UTC-05:00)

X-37B - Visible Passes

Search period start: 26 February 2021 00:00
Search period end: 08 March 2021 00:00
Orbit: 383 x 391 km, 45.0° (Epoch: 10 February)

Date Brightness Start Highest point End Pass type
(mag) Time Alt. Az. Time Alt. Az. Time Alt. Az.
26 Feb 2.6 05:16:57 18° N 05:17:45 20° N 05:20:10 10° ENE visible
27 Feb 4.0 04:21:12 11° NE 04:21:12 11° NE 04:21:22 10° NE visible
27 Feb 1.8 05:53:29 11° NW 05:56:20 37° NNE 05:59:19 10° E visible
28 Feb 2.4 04:57:48 25° NNE 04:57:50 25° NNE 05:00:33 10° ENE visible
01 Mar 0.8 05:34:28 22° NW 05:36:19 65° NNE 05:39:26 10° ESE visible
02 Mar 2.7 04:38:57 28° ENE 04:38:57 28° ENE 04:40:51 10° E visible
02 Mar 1.7 06:11:38 10° W 06:14:27 30° SW 06:17:15 10° SSE visible
03 Mar 0.5 05:15:50 57° WSW 05:16:11 63° SSW 05:19:18 10° SE visible
04 Mar 3.7 04:20:33 13° ESE 04:20:33 13° ESE 04:20:58 10° ESE visible
04 Mar 2.6 05:52:52 12° WSW 05:54:10 15° SW 05:56:05 10° S visible
05 Mar 2.8 04:57:44 17° SSE 04:57:44 17° SSE 04:58:47 10° SSE visible
